Location: Cicognara
(44.9500°N, 10.4667°E)
Time: 07:52:30
(UTC+00:00)

Cosmos 1607 - Pass Details

Date: 20 June 2021
Orbit: 911 x 991 km, 65.0° (Epoch: 04 August)

Event Time Altitude Azimuth Distance (km) Brightness Sun altitude
Rises 22:00:57 0° 324° (NW) 3,699 8.4 -19.3°
Reaches altitude 10° 22:03:33 10° 324° (NW) 2,740 7.4 -19.4°
Maximum altitude 22:09:59 84° 237° (WSW) 978 3.9 -19.8°
Enters shadow 22:12:54 35° 152° (SSE) 1,511 4.5 -19.9°
